^^
Datos históricos de la estación: Murcia-Puente Tocinos
Diario Informe para Mayo 21, 2019 Unidades:  Métrico    Inglés   Ambas
Diario Semanal Mensual Anual Configurable
  Máximo: Mínimo: Media:
Temperatura: 25.0 °C 16.7 °C 19.4 °C
Punto de rocio: 16.3 °C 11.6 °C 14.6 °C
Humedad: 89% 44% 75%
Velocidad viento: 18.0km/h 0.0km/h 7.1km/h
Racha viento: 29.6km/h - -
Viento- - East
Presión: 1015.8 hPa 1011.5 hPa -
Precipitación: 2.6 mm    
Historical Graphs
 
 
Tabla de datos para Mayo 21, 2019
Hora Temperatura Punto de rocio Presión Viento Velocidad viento Racha viento Humedad Intensidad lluvia(por hora) Nubes
00:04 18.2 °C 15.3 °C 1012.3 hPa NE 8.7 km/h 11.1 km/h 83% 0.0 mm CLR
00:09 18.2 °C 15.3 °C 1012.3 hPa NE 8.4 km/h 9.3 km/h 83% 0.0 mm CLR
00:14 18.2 °C 15.3 °C 1012.3 hPa NE 8.4 km/h 13.0 km/h 83% 0.0 mm CLR
00:19 18.2 °C 15.3 °C 1012.2 hPa NE 6.9 km/h 9.3 km/h 83% 0.0 mm CLR
00:24 18.3 °C 15.4 °C 1012.2 hPa NE 6.9 km/h 11.1 km/h 83% 0.0 mm CLR
00:29 18.3 °C 15.4 °C 1012.2 hPa East 8.4 km/h 11.1 km/h 83% 0.0 mm CLR
00:34 18.3 °C 15.4 °C 1012.2 hPa NNE 8.4 km/h 11.1 km/h 83% 0.0 mm CLR
00:39 18.2 °C 15.3 °C 1012.2 hPa NNE 6.4 km/h 9.3 km/h 83% 0.0 mm CLR
00:44 18.1 °C 15.2 °C 1012.2 hPa NNE 6.4 km/h 9.5 km/h 83% 0.0 mm CLR
00:49 18.1 °C 15.2 °C 1012.2 hPa NNE 6.4 km/h 9.3 km/h 83% 0.0 mm CLR
00:54 17.9 °C 15.2 °C 1012.2 hPa NNE 6.4 km/h 11.1 km/h 84% 0.0 mm CLR
00:59 17.9 °C 15.2 °C 1012.2 hPa NNE 6.4 km/h 11.1 km/h 84% 0.0 mm CLR
01:04 17.9 °C 15.2 °C 1012.1 hPa NE 6.4 km/h 9.3 km/h 84% 0.0 mm CLR
01:09 17.9 °C 15.2 °C 1012.1 hPa NNE 7.6 km/h 8.4 km/h 84% 0.0 mm CLR
01:14 17.9 °C 15.2 °C 1012.1 hPa NE 7.6 km/h 11.9 km/h 84% 0.0 mm CLR
01:19 17.9 °C 15.2 °C 1012.2 hPa NNE 6.9 km/h 7.4 km/h 84% 0.0 mm CLR
01:24 17.9 °C 15.2 °C 1012.2 hPa NNE 6.9 km/h 5.8 km/h 84% 0.0 mm CLR
01:29 17.8 °C 15.2 °C 1012.2 hPa NE 5.0 km/h 9.3 km/h 85% 0.0 mm CLR
01:34 17.8 °C 15.2 °C 1012.2 hPa North 5.0 km/h 9.5 km/h 85% 0.0 mm CLR
01:39 17.8 °C 15.2 °C 1012.2 hPa NNE 6.4 km/h 8.4 km/h 85% 0.0 mm CLR
01:44 17.8 °C 15.2 °C 1012.2 hPa NE 6.4 km/h 6.9 km/h 85% 0.0 mm CLR
01:49 17.8 °C 15.2 °C 1012.2 hPa NE 5.0 km/h 7.4 km/h 85% 0.0 mm CLR
01:54 17.8 °C 15.2 °C 1012.2 hPa NE 5.0 km/h 7.4 km/h 85% 0.0 mm CLR
01:59 17.8 °C 15.2 °C 1012.2 hPa NNE 5.8 km/h 9.3 km/h 85% 0.0 mm CLR
02:04 17.8 °C 15.2 °C 1012.1 hPa North 5.8 km/h 7.4 km/h 85% 0.0 mm CLR
02:09 17.8 °C 15.2 °C 1012.1 hPa NNE 5.8 km/h 7.4 km/h 85% 0.0 mm CLR
02:14 17.8 °C 15.2 °C 1012.1 hPa ENE 5.8 km/h 7.4 km/h 85% 0.0 mm CLR
02:19 17.8 °C 15.2 °C 1012.1 hPa NNE 3.9 km/h 5.6 km/h 85% 0.0 mm CLR
02:24 17.8 °C 15.2 °C 1012.1 hPa NE 3.9 km/h 5.0 km/h 85% 0.0 mm CLR
02:29 17.8 °C 15.2 °C 1012.1 hPa NE 3.9 km/h 5.6 km/h 85% 0.0 mm CLR
02:34 17.8 °C 15.2 °C 1012.0 hPa NE 3.9 km/h 3.7 km/h 85% 0.0 mm CLR
02:39 17.8 °C 15.2 °C 1012.0 hPa NE 2.9 km/h   85% 0.0 mm CLR
02:44 17.8 °C 15.2 °C 1012.0 hPa NE 2.9 km/h   85% 0.0 mm CLR
02:49 17.8 °C 15.2 °C 1011.8 hPa Calm   5.0 km/h 85% 0.0 mm CLR
02:54 17.8 °C 15.2 °C 1011.8 hPa Calm   7.4 km/h 85% 0.0 mm CLR
02:59 17.7 °C 15.2 °C 1011.8 hPa NNE 3.2 km/h 3.7 km/h 85% 0.0 mm CLR
03:04 17.7 °C 15.2 °C 1011.8 hPa NNE 3.2 km/h 3.7 km/h 85% 0.0 mm CLR
03:09 17.7 °C 15.2 °C 1011.8 hPa Calm     85% 0.0 mm CLR
03:14 17.7 °C 15.2 °C 1011.8 hPa Calm     85% 0.0 mm CLR
03:19 17.6 °C 15.2 °C 1011.7 hPa Calm     86% 0.0 mm CLR
03:24 17.6 °C 15.2 °C 1011.7 hPa Calm   5.6 km/h 86% 0.0 mm CLR
03:29 17.6 °C 15.2 °C 1011.7 hPa NNE 2.3 km/h 5.0 km/h 86% 0.0 mm CLR
03:34 17.6 °C 15.2 °C 1011.7 hPa NNE 2.3 km/h 4.7 km/h 86% 0.0 mm CLR
03:39 17.6 °C 15.2 °C 1011.7 hPa NNE 3.2 km/h 5.6 km/h 86% 0.0 mm CLR
03:44 17.6 °C 15.2 °C 1011.7 hPa NE 3.2 km/h 3.7 km/h 86% 0.0 mm CLR
03:49 17.6 °C 15.2 °C 1011.8 hPa NNE 2.9 km/h 3.7 km/h 86% 0.0 mm CLR
03:54 17.6 °C 15.2 °C 1011.8 hPa NE 2.9 km/h 3.9 km/h 86% 0.0 mm CLR
03:59 17.5 °C 14.9 °C 1011.8 hPa NE 2.3 km/h 7.4 km/h 85% 0.0 mm CLR
04:04 17.4 °C 14.8 °C 1011.6 hPa NE 2.3 km/h 7.4 km/h 85% 0.0 mm CLR
04:09 17.4 °C 14.8 °C 1011.6 hPa NE 3.9 km/h 3.7 km/h 85% 0.0 mm CLR
04:14 17.3 °C 14.6 °C 1011.6 hPa NE 3.9 km/h 5.8 km/h 84% 0.0 mm CLR
04:19 17.3 °C 14.8 °C 1011.6 hPa NE 3.9 km/h 4.7 km/h 85% 0.0 mm CLR
04:24 17.3 °C 14.8 °C 1011.6 hPa NE 3.9 km/h 3.7 km/h 85% 0.0 mm CLR
04:29 17.3 °C 14.8 °C 1011.6 hPa NE 2.3 km/h   85% 0.0 mm CLR
04:34 17.3 °C 14.6 °C 1011.6 hPa NE 2.3 km/h 5.6 km/h 84% 0.0 mm CLR
04:39 17.3 °C 14.6 °C 1011.6 hPa NE 3.2 km/h 7.4 km/h 84% 0.0 mm CLR
04:44 17.3 °C 14.8 °C 1011.6 hPa NE 3.2 km/h 7.4 km/h 85% 0.0 mm CLR
04:49 17.3 °C 14.9 °C 1011.5 hPa NE 5.0 km/h 7.4 km/h 86% 0.0 mm CLR
04:54 17.3 °C 14.9 °C 1011.5 hPa ENE 5.0 km/h 3.7 km/h 86% 0.0 mm CLR
04:59 17.3 °C 15.1 °C 1011.5 hPa SE 3.2 km/h 5.6 km/h 87% 0.0 mm CLR
05:04 17.3 °C 14.9 °C 1011.9 hPa SE 3.2 km/h 7.4 km/h 86% 0.0 mm CLR
05:09 17.3 °C 14.9 °C 1011.9 hPa ESE 3.2 km/h   86% 0.0 mm CLR
05:14 17.3 °C 14.8 °C 1011.9 hPa ESE 3.2 km/h 5.6 km/h 85% 0.0 mm CLR
05:19 17.3 °C 14.8 °C 1011.9 hPa ESE 2.9 km/h 7.4 km/h 85% 0.0 mm CLR
05:24 17.4 °C 14.8 °C 1011.9 hPa ESE 2.9 km/h 3.7 km/h 85% 0.0 mm CLR
05:29 17.4 °C 14.8 °C 1011.9 hPa ESE 3.2 km/h 5.8 km/h 85% 0.0 mm CLR
05:34 17.4 °C 14.7 °C 1011.7 hPa ENE 3.2 km/h 9.3 km/h 84% 0.0 mm CLR
05:39 17.3 °C 14.6 °C 1011.7 hPa NE 4.7 km/h 5.6 km/h 84% 0.0 mm CLR
05:44 17.2 °C 14.7 °C 1011.7 hPa NE 4.7 km/h 6.4 km/h 85% 0.0 mm CLR
05:49 17.1 °C 14.7 °C 1011.6 hPa SE 3.9 km/h 8.4 km/h 86% 0.0 mm CLR
05:54 17.1 °C 14.9 °C 1011.6 hPa SE 3.9 km/h 7.4 km/h 87% 0.0 mm CLR
05:59 17.1 °C 14.9 °C 1011.6 hPa WSW 5.0 km/h 6.4 km/h 87% 0.0 mm CLR
06:04 17.1 °C 14.9 °C 1011.8 hPa WNW 5.0 km/h 9.3 km/h 87% 0.0 mm CLR
06:09 17.1 °C 14.9 °C 1011.8 hPa NNE 3.9 km/h 5.6 km/h 87% 0.0 mm CLR
06:14 17.1 °C 15.1 °C 1011.8 hPa NNE 3.9 km/h 3.7 km/h 88% 0.0 mm CLR
06:19 17.0 °C 15.0 °C 1011.8 hPa NE 2.9 km/h 7.4 km/h 88% 0.0 mm CLR
06:24 16.9 °C 14.9 °C 1011.8 hPa NE 2.9 km/h 5.6 km/h 88% 0.0 mm CLR
06:29 16.9 °C 14.9 °C 1011.8 hPa NE 3.9 km/h 2.3 km/h 88% 0.0 mm CLR
06:34 16.9 °C 14.9 °C 1012.0 hPa NE 3.9 km/h 4.7 km/h 88% 0.0 mm CLR
06:39 16.9 °C 14.9 °C 1012.0 hPa NE 2.3 km/h 3.7 km/h 88% 0.0 mm CLR
06:44 16.9 °C 14.9 °C 1012.0 hPa NW 2.3 km/h 6.9 km/h 88% 0.0 mm CLR
06:49 16.8 °C 14.8 °C 1012.3 hPa NW 3.2 km/h 7.4 km/h 88% 0.0 mm CLR
06:54 16.8 °C 15.0 °C 1012.3 hPa NNW 3.2 km/h 7.4 km/h 89% 0.0 mm CLR
06:59 16.8 °C 15.0 °C 1012.3 hPa NNW 3.2 km/h 3.7 km/h 89% 0.0 mm CLR
07:04 16.8 °C 15.0 °C 1012.4 hPa NNW 3.2 km/h 5.6 km/h 89% 0.0 mm CLR
07:09 16.8 °C 15.0 °C 1012.4 hPa NNW 2.9 km/h   89% 0.0 mm CLR
07:14 16.8 °C 15.0 °C 1012.4 hPa NNW 2.9 km/h   89% 0.0 mm CLR
07:19 16.8 °C 15.0 °C 1012.5 hPa Calm     89% 0.0 mm CLR
07:24 16.9 °C 15.1 °C 1012.5 hPa Calm   5.6 km/h 89% 0.0 mm CLR
07:29 16.9 °C 14.9 °C 1012.5 hPa NNW 2.3 km/h 3.9 km/h 88% 0.0 mm CLR
07:34 17.0 °C 15.0 °C 1012.6 hPa NNW 2.3 km/h 4.7 km/h 88% 0.0 mm CLR
07:39 17.1 °C 15.1 °C 1012.6 hPa ESE 3.2 km/h 7.4 km/h 88% 0.0 mm CLR
07:44 17.1 °C 15.1 °C 1012.6 hPa East 3.2 km/h 7.4 km/h 88% 0.0 mm CLR
07:49 17.1 °C 15.1 °C 1012.7 hPa East 4.7 km/h 5.6 km/h 88% 0.0 mm CLR
07:54 17.1 °C 15.1 °C 1012.7 hPa East 4.7 km/h 3.7 km/h 88% 0.0 mm CLR
07:59 17.1 °C 15.1 °C 1012.7 hPa East 3.2 km/h 3.7 km/h 88% 0.0 mm CLR
08:04 17.2 °C 15.2 °C 1012.8 hPa East 3.2 km/h 3.7 km/h 88% 0.0 mm CLR
08:09 17.2 °C 15.2 °C 1012.8 hPa East 2.3 km/h 5.6 km/h 88% 0.0 mm CLR
08:14 17.3 °C 15.3 °C 1012.8 hPa East 2.3 km/h 4.7 km/h 88% 0.0 mm CLR
08:19 17.3 °C 15.3 °C 1012.9 hPa NNE 2.9 km/h 5.0 km/h 88% 0.0 mm CLR
08:24 17.4 °C 15.4 °C 1012.9 hPa ENE 2.9 km/h 5.6 km/h 88% 0.0 mm CLR
08:29 17.4 °C 15.4 °C 1012.9 hPa ENE 2.9 km/h 7.4 km/h 88% 0.0 mm CLR
08:34 17.4 °C 15.4 °C 1013.0 hPa NE 2.9 km/h 3.2 km/h 88% 0.0 mm CLR
08:39 17.6 °C 15.6 °C 1013.0 hPa NNE 3.2 km/h 7.4 km/h 88% 0.0 mm CLR
08:44 17.6 °C 15.6 °C 1013.0 hPa North 3.2 km/h 5.8 km/h 88% 0.0 mm CLR
08:49 17.9 °C 15.9 °C 1013.1 hPa NNE 4.7 km/h 7.4 km/h 88% 0.0 mm CLR
08:54 18.1 °C 15.9 °C 1013.1 hPa NNE 4.7 km/h 11.1 km/h 87% 0.0 mm CLR
08:59 18.3 °C 15.9 °C 1013.1 hPa NNE 5.0 km/h 9.3 km/h 86% 0.0 mm CLR
09:04 18.4 °C 15.8 °C 1013.0 hPa NE 5.0 km/h 10.3 km/h 85% 0.0 mm CLR
09:09 18.4 °C 16.0 °C 1013.0 hPa ENE 6.9 km/h 13.0 km/h 86% 0.0 mm CLR
09:14 18.4 °C 16.0 °C 1013.0 hPa NNW 6.9 km/h 14.8 km/h 86% 0.0 mm CLR
09:19 18.5 °C 15.9 °C 1012.9 hPa NE 9.5 km/h 13.7 km/h 85% 0.0 mm CLR
09:24 18.6 °C 16.0 °C 1012.9 hPa East 9.5 km/h 9.3 km/h 85% 0.0 mm CLR
09:29 18.6 °C 16.0 °C 1012.9 hPa ENE 7.6 km/h 10.3 km/h 85% 0.0 mm CLR
09:34 18.7 °C 16.1 °C 1013.1 hPa NNE 7.6 km/h 11.1 km/h 85% 0.0 mm CLR
09:39 18.7 °C 16.1 °C 1013.1 hPa East 7.6 km/h 8.7 km/h 85% 0.0 mm CLR
09:44 18.8 °C 16.1 °C 1013.1 hPa NE 7.6 km/h 11.1 km/h 84% 0.0 mm CLR
09:49 18.7 °C 15.9 °C 1013.3 hPa NE 8.7 km/h 14.8 km/h 84% 0.0 mm CLR
09:54 18.7 °C 16.1 °C 1013.3 hPa NNE 8.7 km/h 13.0 km/h 85% 0.0 mm CLR
09:59 18.9 °C 16.1 °C 1013.3 hPa North 8.4 km/h 11.1 km/h 84% 0.0 mm CLR
10:04 19.3 °C 16.3 °C 1013.3 hPa NNE 8.4 km/h 7.6 km/h 83% 0.0 mm CLR
10:09 19.6 °C 16.2 °C 1013.3 hPa NNE 6.9 km/h 14.0 km/h 81% 0.0 mm CLR
10:14 19.6 °C 16.2 °C 1013.3 hPa NE 6.9 km/h 13.0 km/h 81% 0.0 mm CLR
10:19 19.6 °C 16.2 °C 1013.4 hPa ESE 8.7 km/h 6.9 km/h 81% 0.0 mm CLR
10:24 19.7 °C 16.2 °C 1013.4 hPa NNE 8.7 km/h 14.8 km/h 80% 0.0 mm CLR
10:29 19.5 °C 15.9 °C 1013.4 hPa NNE 6.9 km/h 10.0 km/h 80% 0.0 mm CLR
10:34 19.6 °C 15.8 °C 1013.5 hPa NE 6.9 km/h 16.7 km/h 79% 0.0 mm CLR
10:39 19.7 °C 15.9 °C 1013.5 hPa NE 9.5 km/h 11.1 km/h 79% 0.0 mm CLR
10:44 20.0 °C 15.8 °C 1013.5 hPa NE 9.5 km/h 14.8 km/h 77% 0.0 mm CLR
10:49 20.1 °C 15.6 °C 1013.4 hPa NE 8.7 km/h 18.5 km/h 75% 0.0 mm CLR
10:54 20.3 °C 15.3 °C 1013.4 hPa ENE 8.7 km/h 18.5 km/h 73% 0.0 mm CLR
10:59 20.3 °C 15.1 °C 1013.4 hPa NE 11.1 km/h 18.5 km/h 72% 0.0 mm CLR
11:04 20.3 °C 15.1 °C 1013.5 hPa NNE 11.1 km/h 10.0 km/h 72% 0.0 mm CLR
11:09 20.5 °C 15.5 °C 1013.5 hPa NE 8.4 km/h 20.4 km/h 73% 0.0 mm CLR
11:14 20.6 °C 15.2 °C 1013.5 hPa North 8.4 km/h 16.7 km/h 71% 0.0 mm CLR
11:19 20.8 °C 14.7 °C 1013.5 hPa NE 10.0 km/h 11.1 km/h 68% 0.0 mm CLR
11:24 20.8 °C 15.1 °C 1013.5 hPa NNW 10.0 km/h 14.8 km/h 70% 0.0 mm CLR
11:29 20.9 °C 15.0 °C 1013.5 hPa NE 8.7 km/h 11.1 km/h 69% 0.0 mm CLR
11:34 21.1 °C 14.9 °C 1013.5 hPa NNE 8.7 km/h 7.4 km/h 68% 0.0 mm CLR
11:39 21.2 °C 15.1 °C 1013.5 hPa NE 7.6 km/h 16.7 km/h 68% 0.0 mm CLR
11:44 21.3 °C 15.2 °C 1013.5 hPa NE 7.6 km/h 14.8 km/h 68% 0.0 mm CLR
11:49 21.4 °C 15.2 °C 1013.5 hPa NE 10.0 km/h 13.0 km/h 68% 0.0 mm CLR
11:54 21.6 °C 15.2 °C 1013.5 hPa NNE 10.0 km/h 12.2 km/h 67% 0.0 mm CLR
11:59 21.6 °C 15.2 °C 1013.5 hPa NE 9.5 km/h 18.5 km/h 67% 0.0 mm CLR
12:04 21.7 °C 15.1 °C 1013.5 hPa ENE 9.5 km/h 13.0 km/h 66% 0.0 mm CLR
12:09 21.7 °C 14.3 °C 1013.5 hPa North 10.0 km/h 18.5 km/h 63% 0.0 mm CLR
12:14 21.9 °C 14.6 °C 1013.5 hPa NNE 10.0 km/h 7.6 km/h 63% 0.0 mm CLR
12:19 22.1 °C 14.5 °C 1013.4 hPa NNE 7.6 km/h 11.1 km/h 62% 0.0 mm CLR
12:24 22.4 °C 14.5 °C 1013.4 hPa NNE 7.6 km/h 16.7 km/h 61% 0.0 mm CLR
12:29 22.5 °C 14.3 °C 1013.4 hPa NNE 9.5 km/h 13.0 km/h 60% 0.0 mm CLR
12:34 22.6 °C 14.4 °C 1013.4 hPa ENE 9.5 km/h 9.3 km/h 60% 0.0 mm CLR
12:39 22.8 °C 14.4 °C 1013.4 hPa NE 6.4 km/h 9.3 km/h 59% 0.0 mm CLR
12:44 22.9 °C 14.2 °C 1013.4 hPa NW 6.4 km/h 7.4 km/h 58% 0.0 mm CLR
12:49 23.1 °C 14.1 °C 1013.3 hPa NNE 6.4 km/h 16.7 km/h 57% 0.0 mm CLR
12:54 23.3 °C 14.3 °C 1013.3 hPa NE 6.4 km/h 14.8 km/h 57% 0.0 mm CLR
12:59 23.4 °C 14.4 °C 1013.3 hPa NE 7.6 km/h 16.7 km/h 57% 0.0 mm CLR
13:04 23.3 °C 14.1 °C 1013.1 hPa NE 7.6 km/h 20.4 km/h 56% 0.0 mm CLR
13:09 23.3 °C 14.3 °C 1013.1 hPa East 10.0 km/h 11.1 km/h 57% 0.0 mm CLR
13:14 23.6 °C 14.6 °C 1013.1 hPa NNE 10.0 km/h 14.8 km/h 57% 0.0 mm CLR
13:19 23.8 °C 13.9 °C 1013.1 hPa SE 8.7 km/h 16.7 km/h 54% 0.0 mm CLR
13:24 23.9 °C 14.0 °C 1013.1 hPa ENE 8.7 km/h 14.0 km/h 54% 0.0 mm CLR
13:29 24.1 °C 13.0 °C 1013.1 hPa ESE 9.5 km/h 14.8 km/h 50% 0.0 mm CLR
13:34 24.4 °C 12.7 °C 1013.2 hPa North 9.5 km/h 16.7 km/h 48% 0.0 mm CLR
13:39 24.3 °C 12.3 °C 1013.2 hPa ESE 10.0 km/h 18.0 km/h 47% 0.0 mm CLR
13:44 24.3 °C 12.3 °C 1013.2 hPa SSE 10.0 km/h 9.5 km/h 47% 0.0 mm CLR
13:49 24.3 °C 12.6 °C 1013.0 hPa ENE 9.5 km/h 14.8 km/h 48% 0.0 mm CLR
13:54 24.7 °C 11.9 °C 1013.0 hPa ESE 9.5 km/h 20.4 km/h 45% 0.0 mm CLR
13:59 24.6 °C 11.6 °C 1013.0 hPa ESE 10.0 km/h 11.1 km/h 44% 0.0 mm CLR
14:04 24.7 °C 12.3 °C 1013.0 hPa SE 10.0 km/h 18.5 km/h 46% 0.0 mm CLR
14:09 24.6 °C 12.6 °C 1013.0 hPa SE 8.7 km/h 20.4 km/h 47% 0.0 mm CLR
14:14 24.9 °C 12.5 °C 1013.0 hPa SE 8.7 km/h 14.8 km/h 46% 0.0 mm CLR
14:19 25.0 °C 12.6 °C 1013.0 hPa SE 10.3 km/h 20.4 km/h 46% 0.0 mm CLR
14:24 24.9 °C 12.2 °C 1013.0 hPa SE 10.3 km/h 25.9 km/h 45% 0.0 mm CLR
14:29 24.8 °C 12.1 °C 1013.0 hPa SSE 13.7 km/h 20.4 km/h 45% 0.0 mm CLR
14:34 24.7 °C 13.3 °C 1012.8 hPa ENE 13.7 km/h 20.4 km/h 49% 0.0 mm CLR
14:39 24.6 °C 12.8 °C 1012.8 hPa ESE 13.7 km/h 20.4 km/h 48% 0.0 mm CLR
14:44 24.7 °C 13.3 °C 1012.8 hPa East 13.7 km/h 16.7 km/h 49% 0.0 mm CLR
14:49 24.4 °C 13.3 °C 1012.7 hPa East 12.2 km/h 18.5 km/h 50% 0.0 mm CLR
14:54 24.3 °C 13.8 °C 1012.7 hPa East 12.2 km/h 20.4 km/h 52% 0.0 mm CLR
14:59 24.3 °C 13.8 °C 1012.7 hPa ESE 13.0 km/h 22.2 km/h 52% 0.0 mm CLR
15:04 24.3 °C 13.2 °C 1012.7 hPa SE 13.0 km/h 19.8 km/h 50% 0.0 mm CLR
15:09 24.3 °C 13.8 °C 1012.7 hPa ENE 15.6 km/h 24.1 km/h 52% 0.0 mm CLR
15:14 24.3 °C 13.8 °C 1012.7 hPa ESE 15.6 km/h 20.1 km/h 52% 0.0 mm CLR
15:19 24.2 °C 13.7 °C 1012.7 hPa ESE 11.9 km/h 16.7 km/h 52% 0.0 mm CLR
15:24 24.3 °C 13.8 °C 1012.7 hPa SE 11.9 km/h 29.6 km/h 52% 0.0 mm CLR
15:29 24.2 °C 13.7 °C 1012.7 hPa ESE 11.9 km/h 17.2 km/h 52% 0.0 mm CLR
15:34 24.3 °C 13.8 °C 1012.7 hPa ESE 11.9 km/h 20.4 km/h 52% 0.0 mm CLR
15:39 24.1 °C 13.9 °C 1012.7 hPa ENE 13.0 km/h 16.7 km/h 53% 0.0 mm CLR
15:44 23.9 °C 14.0 °C 1012.7 hPa East 13.0 km/h 18.5 km/h 54% 0.0 mm CLR
15:49 23.7 °C 14.1 °C 1012.8 hPa East 12.2 km/h 20.4 km/h 55% 0.0 mm CLR
15:54 23.6 °C 14.1 °C 1012.8 hPa ESE 12.2 km/h 25.9 km/h 55% 0.0 mm CLR
15:59 23.4 °C 14.1 °C 1012.8 hPa East 14.8 km/h 22.0 km/h 56% 0.0 mm CLR
16:04 23.4 °C 14.1 °C 1012.9 hPa East 14.8 km/h 14.8 km/h 56% 0.0 mm CLR
16:09 23.2 °C 14.2 °C 1012.9 hPa East 14.0 km/h 20.4 km/h 57% 0.0 mm CLR
16:14 23.1 °C 13.8 °C 1012.9 hPa East 14.0 km/h 27.8 km/h 56% 0.0 mm CLR
16:19 23.1 °C 13.8 °C 1012.9 hPa ESE 17.2 km/h 18.0 km/h 56% 0.0 mm CLR
16:24 23.1 °C 14.1 °C 1012.9 hPa SSE 17.2 km/h 24.1 km/h 57% 0.0 mm CLR
16:29 23.1 °C 13.8 °C 1012.9 hPa ESE 11.9 km/h 29.6 km/h 56% 0.0 mm CLR
16:34 23.0 °C 13.7 °C 1013.1 hPa SE 11.9 km/h 29.6 km/h 56% 0.0 mm CLR
16:39 23.0 °C 14.0 °C 1013.1 hPa SE 17.2 km/h 16.7 km/h 57% 0.0 mm CLR
16:44 23.0 °C 14.0 °C 1013.1 hPa ESE 17.2 km/h 22.2 km/h 57% 0.0 mm CLR
16:49 22.7 °C 13.7 °C 1013.1 hPa ESE 16.1 km/h 25.9 km/h 57% 0.0 mm CLR
16:54 22.7 °C 14.0 °C 1013.1 hPa East 16.1 km/h 22.2 km/h 58% 0.0 mm CLR
16:59 22.8 °C 14.1 °C 1013.1 hPa ESE 16.1 km/h 16.7 km/h 58% 0.0 mm CLR
17:04 22.7 °C 14.0 °C 1013.1 hPa ESE 16.1 km/h 22.2 km/h 58% 0.0 mm CLR
17:09 22.3 °C 13.9 °C 1013.1 hPa ESE 14.8 km/h 16.7 km/h 59% 0.0 mm CLR
17:14 22.4 °C 14.0 °C 1013.1 hPa SE 14.8 km/h 18.5 km/h 59% 0.0 mm CLR
17:19 22.3 °C 13.9 °C 1013.2 hPa ESE 11.1 km/h 20.4 km/h 59% 0.0 mm CLR
17:24 22.1 °C 13.9 °C 1013.2 hPa ESE 11.1 km/h 18.5 km/h 60% 0.0 mm CLR
17:29 22.1 °C 14.2 °C 1013.2 hPa East 12.2 km/h 13.0 km/h 61% 0.0 mm CLR
17:34 21.9 °C 14.1 °C 1013.4 hPa SE 12.2 km/h 24.1 km/h 61% 0.0 mm CLR
17:39 21.9 °C 14.1 °C 1013.4 hPa ENE 10.3 km/h 16.4 km/h 61% 0.0 mm CLR
17:44 21.8 °C 13.9 °C 1013.4 hPa ESE 10.3 km/h 13.0 km/h 61% 0.0 mm CLR
17:49 21.8 °C 14.2 °C 1013.4 hPa East 8.7 km/h 16.7 km/h 62% 0.0 mm CLR
17:54 21.8 °C 14.4 °C 1013.4 hPa ESE 8.7 km/h 14.8 km/h 63% 0.0 mm CLR
17:59 21.6 °C 14.5 °C 1013.4 hPa NE 8.4 km/h 7.4 km/h 64% 0.0 mm CLR
18:04 21.4 °C 15.0 °C 1013.9 hPa NNE 8.4 km/h 11.9 km/h 67% 0.0 mm CLR
18:09 21.2 °C 15.3 °C 1013.9 hPa NNE 7.6 km/h 7.4 km/h 69% 0.0 mm CLR
18:14 21.0 °C 15.1 °C 1013.9 hPa NE 7.6 km/h 14.8 km/h 69% 0.0 mm CLR
18:19 20.9 °C 15.2 °C 1014.4 hPa NNE 7.6 km/h 10.3 km/h 70% 0.0 mm CLR
18:24 20.9 °C 15.2 °C 1014.4 hPa NNE 7.6 km/h 13.7 km/h 70% 0.0 mm CLR
18:29 20.8 °C 15.3 °C 1014.4 hPa East 8.4 km/h 9.3 km/h 71% 0.0 mm CLR
18:34 20.7 °C 15.4 °C 1014.8 hPa North 8.4 km/h 11.1 km/h 72% 0.5 mm RA
18:39 20.2 °C 14.6 °C 1014.8 hPa NW 8.4 km/h 25.9 km/h 70% 0.8 mm RA
18:44 18.9 °C 12.9 °C 1014.8 hPa North 8.4 km/h 29.6 km/h 68% 0.8 mm RA
18:49 17.9 °C 12.8 °C 1014.8 hPa NNW 18.0 km/h 24.1 km/h 72% 0.8 mm CLR
18:54 17.6 °C 12.9 °C 1014.8 hPa North 18.0 km/h 18.5 km/h 74% 1.0 mm RA
18:59 17.3 °C 12.8 °C 1014.8 hPa NNE 10.3 km/h 18.5 km/h 75% 1.5 mm RA
19:04 17.0 °C 12.7 °C 1014.4 hPa NNE 10.3 km/h 22.2 km/h 76% 2.0 mm RA
19:09 16.7 °C 12.8 °C 1014.4 hPa NNE 14.8 km/h 20.4 km/h 78% 2.3 mm RA
19:14 16.7 °C 12.8 °C 1014.4 hPa NE 14.8 km/h 18.5 km/h 78% 2.3 mm RA
19:19 16.8 °C 13.1 °C 1013.5 hPa ENE 13.7 km/h 18.5 km/h 79% 2.3 mm CLR
19:24 16.9 °C 13.4 °C 1013.5 hPa ENE 13.7 km/h 16.7 km/h 80% 2.6 mm RA
19:29 16.8 °C 13.1 °C 1013.5 hPa East 11.9 km/h 20.4 km/h 79% 2.6 mm RA
19:34 16.9 °C 13.1 °C 1012.7 hPa ENE 11.9 km/h 14.8 km/h 78% 2.1 mm CLR
19:39 17.1 °C 12.8 °C 1012.7 hPa East 9.5 km/h 11.1 km/h 76% 1.8 mm CLR
19:44 17.4 °C 13.3 °C 1012.7 hPa NW 9.5 km/h 13.0 km/h 77% 1.8 mm CLR
19:49 17.7 °C 13.6 °C 1013.0 hPa SW 5.8 km/h 7.4 km/h 77% 1.8 mm CLR
19:54 17.9 °C 13.8 °C 1013.0 hPa SW 5.8 km/h 7.6 km/h 77% 1.6 mm CLR
19:59 18.0 °C 13.7 °C 1013.0 hPa SW 6.4 km/h 9.3 km/h 76% 1.1 mm CLR
20:04 18.2 °C 13.5 °C 1012.7 hPa SSW 6.4 km/h 13.0 km/h 74% 0.6 mm CLR
20:09 18.6 °C 13.4 °C 1012.7 hPa SSW 9.5 km/h 16.7 km/h 72% 0.3 mm CLR
20:14 18.7 °C 13.8 °C 1012.7 hPa WNW 9.5 km/h 7.4 km/h 73% 0.3 mm CLR
20:19 18.6 °C 13.4 °C 1013.3 hPa West 8.7 km/h 16.7 km/h 72% 0.3 mm CLR
20:24 18.6 °C 13.7 °C 1013.3 hPa West 8.7 km/h 14.0 km/h 73% 0.0 mm CLR
20:29 18.6 °C 13.7 °C 1013.3 hPa WNW 10.0 km/h 11.1 km/h 73% 0.0 mm CLR
20:34 18.6 °C 13.4 °C 1013.6 hPa WNW 10.0 km/h 13.0 km/h 72% 0.0 mm CLR
20:39 18.6 °C 13.7 °C 1013.6 hPa West 9.5 km/h 14.8 km/h 73% 0.0 mm CLR
20:44 18.6 °C 13.9 °C 1013.6 hPa NNW 9.5 km/h 8.7 km/h 74% 0.0 mm CLR
20:49 18.6 °C 14.3 °C 1014.2 hPa NE 5.8 km/h 7.4 km/h 76% 0.0 mm CLR
20:54 18.5 °C 14.4 °C 1014.2 hPa NW 5.8 km/h 9.5 km/h 77% 0.0 mm CLR
20:59 18.5 °C 14.6 °C 1014.2 hPa North 5.0 km/h 7.4 km/h 78% 0.0 mm CLR
21:04 18.3 °C 14.2 °C 1014.4 hPa NE 5.0 km/h 9.3 km/h 77% 0.0 mm CLR
21:09 18.2 °C 14.3 °C 1014.4 hPa NE 5.0 km/h 9.3 km/h 78% 0.0 mm CLR
21:14 18.0 °C 14.1 °C 1014.4 hPa NE 5.0 km/h 7.4 km/h 78% 0.0 mm CLR
21:19 17.9 °C 14.2 °C 1014.5 hPa NNW 5.8 km/h 5.6 km/h 79% 0.0 mm CLR
21:24 17.9 °C 14.2 °C 1014.5 hPa NNW 5.8 km/h 7.4 km/h 79% 0.0 mm CLR
21:29 17.9 °C 14.4 °C 1014.5 hPa NNE 3.9 km/h 3.7 km/h 80% 0.0 mm CLR
21:34 17.8 °C 14.3 °C 1014.6 hPa NNE 3.9 km/h 5.6 km/h 80% 0.0 mm CLR
21:39 17.8 °C 14.3 °C 1014.6 hPa NE 3.2 km/h 7.4 km/h 80% 0.0 mm CLR
21:44 17.7 °C 14.2 °C 1014.6 hPa NE 3.2 km/h 7.4 km/h 80% 0.0 mm CLR
21:49 17.7 °C 14.2 °C 1014.8 hPa NE 5.8 km/h 9.3 km/h 80% 0.0 mm CLR
21:54 17.7 °C 14.2 °C 1014.8 hPa NE 5.8 km/h 9.3 km/h 80% 0.0 mm CLR
21:59 17.8 °C 14.3 °C 1014.8 hPa NNE 5.0 km/h 7.4 km/h 80% 0.0 mm CLR
22:04 17.7 °C 14.4 °C 1015.1 hPa NE 5.0 km/h 8.7 km/h 81% 0.0 mm CLR
22:09 17.7 °C 14.4 °C 1015.1 hPa NE 5.8 km/h 9.3 km/h 81% 0.0 mm CLR
22:14 17.6 °C 14.5 °C 1015.1 hPa NE 5.8 km/h 7.4 km/h 82% 0.0 mm CLR
22:19 17.5 °C 14.4 °C 1015.1 hPa NE 5.0 km/h 7.4 km/h 82% 0.0 mm CLR
22:24 17.5 °C 14.4 °C 1015.1 hPa NE 5.0 km/h 7.4 km/h 82% 0.0 mm CLR
22:29 17.6 °C 14.5 °C 1015.1 hPa NE 3.2 km/h 5.6 km/h 82% 0.0 mm CLR
22:34 17.5 °C 14.4 °C 1015.5 hPa NE 3.2 km/h 7.4 km/h 82% 0.0 mm CLR
22:39 17.6 °C 14.5 °C 1015.5 hPa NE 3.2 km/h   82% 0.0 mm CLR
22:44 17.6 °C 14.7 °C 1015.5 hPa NE 3.2 km/h   83% 0.0 mm CLR
22:49 17.6 °C 14.7 °C 1015.7 hPa Calm     83% 0.0 mm CLR
22:54 17.6 °C 14.7 °C 1015.7 hPa Calm     83% 0.0 mm CLR
22:59 17.6 °C 14.7 °C 1015.7 hPa Calm   3.7 km/h 83% 0.0 mm CLR
23:04 17.6 °C 14.5 °C 1015.8 hPa Calm   8.4 km/h 82% 0.0 mm CLR
23:09 17.5 °C 14.4 °C 1015.8 hPa ESE 3.2 km/h 7.4 km/h 82% 0.0 mm CLR
23:14 17.5 °C 14.4 °C 1015.8 hPa ESE 3.2 km/h 3.7 km/h 82% 0.0 mm CLR
23:19 17.5 °C 14.4 °C 1015.7 hPa ESE 2.3 km/h   82% 0.0 mm CLR
23:24 17.5 °C 14.2 °C 1015.7 hPa ESE 2.3 km/h 9.3 km/h 81% 0.0 mm CLR
23:29 17.6 °C 14.3 °C 1015.7 hPa ESE 3.9 km/h 8.7 km/h 81% 0.0 mm CLR
23:34 17.5 °C 14.4 °C 1015.6 hPa ESE 3.9 km/h 7.4 km/h 82% 0.0 mm CLR
23:39 17.4 °C 14.3 °C 1015.6 hPa SE 5.0 km/h 8.4 km/h 82% 0.0 mm CLR
23:44 17.4 °C 14.5 °C 1015.6 hPa SE 5.0 km/h 7.4 km/h 83% 0.0 mm CLR
23:49 17.4 °C 14.5 °C 1015.7 hPa SE 3.9 km/h   83% 0.0 mm CLR
23:54 17.3 °C 14.4 °C 1015.7 hPa NW 3.9 km/h 9.3 km/h 83% 0.0 mm CLR
23:59 17.3 °C 14.6 °C 1015.7 hPa NNW 3.2 km/h   84% 0.0 mm CLR
Murcia-Puente Tocinos, España
Compliments of Weather Underground - 2.75 mb

La estación de MeteoMurcia.com, publica sus datos en los siguientes proyectos:

Weather Underground PWS IMURCIAP2 Meteoclimatic www.awekas.at

W3Counter
Web Analytics